Waarnemingen

Advertentie
Mijn weer
Pau, Frankrijk (7610): temperatuur & dauwpunt: 22.04.2017 02:00:00 - 28.04.2017 02:00:00 (CEST)Pau, Frankrijk (7610): temperatuur 5cm: 22.04.2017 02:00:00 - 28.04.2017 02:00:00 (CEST)Pau, Frankrijk (7610): temperatuur -20cm & temperatuur -100cm: 22.04.2017 02:00:00 - 28.04.2017 02:00:00 (CEST)Pau, Frankrijk (7610): windsnelheid & windstoten: 22.04.2017 02:00:00 - 28.04.2017 02:00:00 (CEST)Pau, Frankrijk (7610): windrichting: 22.04.2017 02:00:00 - 28.04.2017 02:00:00 (CEST)Pau, Frankrijk (7610): luchtdruk: 22.04.2017 02:00:00 - 28.04.2017 02:00:00 (CEST)Pau, Frankrijk (7610): zicht: 22.04.2017 02:00:00 - 28.04.2017 02:00:00 (CEST)Pau, Frankrijk (7610): Zonneschijnduur: 22.04.2017 02:00:00 - 28.04.2017 02:00:00 (CEST)Pau, Frankrijk (7610): neerslag: 22.04.2017 02:00:00 - 28.04.2017 02:00:00 (CEST)
Datum & Tijd tt [°C] td [°C] tt 5cm [°C] tt -20cm [°C] tt -100cm [°C] ff [km/u] ff [kn] fx [km/u] fx [kn] dd ppp [hPa] vv [km] sd [min] rr [mm]
28.04.2017 02:00:00 5,0 0,6 0,7 12,9 12,9 6 4 9 5 ZW 1022,4 60 0 0,0
28.04.2017 01:00:00 5,2 0,9 -0,8 13,0 12,9 5 3 11 6 WZW 1022,3 60 0 0,0
28.04.2017 00:00:00 5,3 0,3 -0,3 13,0 12,9 7 4 13 7 W 1022,1 60 0 0,0
27.04.2017 23:00:00 6,4 0,3 0,8 13,0 12,9 9 5 14 7 ZW 1021,9 60 0 0,0
27.04.2017 22:00:00 6,8 0,5 1,7 13,0 12,9 6 4 14 7 WZW 1021,0 60 0 0,0
27.04.2017 21:00:00 7,7 0,2 3,2 13,0 12,9 9 5 23 13 WNW 1020,2 60 31 0,0
27.04.2017 20:00:00 9,5 -0,7 7,4 12,9 12,9 16 9 34 18 NNW 1019,4 56 49 0,0
27.04.2017 19:00:00 10,2 1,6 13,3 12,8 12,8 29 15 44 24 NNO 1019,0 60 60 0,2
27.04.2017 18:00:00 11,9 -1,3 12,2 12,8 12,9 27 15 39 21 NNW 1018,2 33 45 0,0
27.04.2017 17:00:00 12,6 -1,0 15,3 12,7 12,9 13 7 29 15 NNW 1017,8 54 55 0,0
27.04.2017 16:00:00 11,5 -1,0 16,1 12,7 12,9 13 7 27 15 N 1018,1 50 39 0,0
27.04.2017 15:00:00 12,1 0,5 15,9 12,7 12,9 9 5 29 16 NNW 1018,2 46 45 0,0
27.04.2017 14:00:00 10,2 -0,9 14,7 12,6 12,9 15 8 27 15 NNW 1018,6 45 26 0,0
27.04.2017 13:00:00 11,1 2,6 11,9 12,7 12,9 8 5 27 14 N 1018,6 38 34 0,0
27.04.2017 12:00:00 10,1 1,5 14,5 12,7 12,9 7 4 25 13 NNO 1018,7 57 20 0,0
27.04.2017 11:00:00 9,6 1,0 11,1 12,7 12,8 9 5 18 10 NNO 1018,6 46 46 0,0
27.04.2017 10:00:00 8,7 2,7 9,2 12,8 12,9 10 5 17 9 N 1018,2 15 60 0,0
27.04.2017 09:00:00 6,9 3,3 4,7 12,9 12,9 5 3 8 4 NO 1017,8 36 44 0,0
27.04.2017 08:00:00 4,7 3,2 2,0 12,9 12,9 4 2 6 3 NNO 1017,8 15 0 0,0
27.04.2017 07:00:00 4,8 2,8 2,6 13,0 12,9 4 2 11 6 OZO 1017,3 40 0 0,0
27.04.2017 06:00:00 5,2 3,0 3,4 13,0 12,8 8 4 16 9 ZO 1017,1 20 0 0,0
27.04.2017 05:00:00 4,8 3,9 3,0 13,1 12,9 2 1 4 2 NO 1017,2 13 0 0,0
27.04.2017 04:00:00 4,9 3,7 2,3 13,2 12,9 3 1 8 4 N 1017,1 17 0 0,0
27.04.2017 03:00:00 5,3 2,8 3,2 13,2 12,9 3 1 8 4 N 1017,3 37 0 0,0
27.04.2017 02:00:00 5,8 2,1 4,1 13,2 12,8 5 3 7 4 W 1017,6 45 0 0,0
27.04.2017 01:00:00 5,6 2,1 2,8 13,3 12,8 5 3 9 5 WZW 1017,7 50 0 0,0
27.04.2017 00:00:00 6,3 2,6 3,1 13,3 12,8 7 4 13 7 W 1017,5 52 0 0,0
26.04.2017 23:00:00 7,2 2,5 5,7 13,3 12,8 3 2 21 11 WNW 1017,7 60 0 0,0
26.04.2017 22:00:00 7,0 2,5 5,5 13,3 12,8 11 6 26 14 N 1017,4 11 0 0,4
26.04.2017 21:00:00 8,9 3,1 7,6 13,3 12,8 6 3 16 9 WNW 1016,3 42 0 0,0
26.04.2017 20:00:00 9,5 2,8 8,9 13,3 12,9 11 6 16 9 NNW 1015,7 42 0 0,0
26.04.2017 19:00:00 10,3 0,9 12,4 13,3 12,8 4 2 13 7 WNW 1015,3 36 11 0,0
26.04.2017 18:00:00 10,6 2,2 15,1 13,3 12,8 3 2 15 8 NW 1015,3 58 0 0,0
26.04.2017 17:00:00 10,1 3,1 15,0 13,3 12,8 8 4 19 10 WNW 1015,4 51 0 0,0
26.04.2017 16:00:00 9,7 3,0 15,5 13,2 12,8 9 5 20 11 NNW 1015,7 48 0 0,0
26.04.2017 15:00:00 9,5 3,5 14,7 13,3 12,8 11 6 24 13 N 1015,3 37 0 0,0
26.04.2017 14:00:00 9,0 3,8 11,4 13,3 12,8 14 8 24 13 NNW 1015,2 20 0 0,0
26.04.2017 13:00:00 7,7 4,3 8,8 13,3 12,8 15 8 22 12 NW 1015,2 20 0 0,0
26.04.2017 12:00:00 7,4 4,7 8,0 13,4 12,8 17 9 26 14 NW 1015,0 20 0 0,0
26.04.2017 11:00:00 6,4 4,4 7,1 13,4 12,8 13 7 22 12 NW 1014,8 18 0 0,2
26.04.2017 10:00:00 6,3 4,8 6,6 13,5 12,8 14 7 21 11 NW 1014,4 15 0 0,0
26.04.2017 09:00:00 6,1 5,1 6,2 13,5 12,8 13 7 21 12 WNW 1013,8 13 0 0,2
26.04.2017 08:00:00 5,6 4,7 5,5 13,5 12,8 12 6 35 19 NW 1013,2 6 0 0,4
26.04.2017 07:00:00 6,2 5,3 6,2 13,6 12,8 24 13 33 18 NNW 1011,9 4,5 0 0,4
26.04.2017 06:00:00 7,6 6,5 7,6 13,6 12,8 10 5 27 15 N 1010,2 10 0 0,0
26.04.2017 05:00:00 8,3 7,5 8,4 13,6 12,8 14 8 28 15 N 1010,1 2,8 0 0,0
26.04.2017 04:00:00 9,6 8,7 9,4 13,7 12,8 14 7 18 10 NNW 1009,9 1,9 0 0,0
26.04.2017 03:00:00 9,8 8,7 8,8 13,7 12,8 8 5 15 8 W 1009,7 7 0 0,0
26.04.2017 02:00:00 9,8 8,9 7,4 13,7 12,8 9 5 14 7 NW 1010,2 6 0 0,0
26.04.2017 01:00:00 9,9 8,7 8,7 13,7 12,8 6 4 19 10 WNW 1010,1 7 0 0,0
26.04.2017 00:00:00 10,2 8,5 9,5 13,7 12,8 11 6 18 10 W 1010,3 12 0 0,0
25.04.2017 23:00:00 10,3 8,7 9,7 13,7 12,8 13 7 19 10 W 1010,3 14 0 0,4
25.04.2017 22:00:00 10,5 9,1 10,0 13,8 12,8 9 5 14 8 WZW 1010,3 16 0 0,6
25.04.2017 21:00:00 10,6 9,0 10,2 13,8 12,8 11 6 21 11 ZW 1009,6 20 0 0,0
25.04.2017 20:00:00 10,7 8,8 10,5 13,8 12,8 8 5 18 10 WZW 1009,3 36 0 0,0
25.04.2017 19:00:00 10,6 8,5 10,2 13,8 12,8 14 8 24 13 W 1009,2 2,5 0 0,0
25.04.2017 18:00:00 10,8 8,4 10,4 13,7 12,8 13 7 21 11 WNW 1008,8 17 0 1,0
25.04.2017 17:00:00 11,1 9,5 10,7 13,7 12,8 10 5 42 23 WNW 1008,8 1,5 0 3,4
25.04.2017 16:00:00 15,0 8,2 17,5 13,7 12,8 21 11 33 18 NW 1007,9 33 1 0,0
25.04.2017 15:00:00 15,5 10,3 18,2 13,7 12,8 19 10 28 15 NNW 1007,5 29 0 0,0
25.04.2017 14:00:00 16,8 9,9 19,2 13,6 12,7 14 8 24 13 NNW 1007,1 38 1 0,0
25.04.2017 13:00:00 16,1 8,6 20,4 13,7 12,8 14 8 24 13 NNW 1007,4 33 19 0,0
25.04.2017 12:00:00 16,1 6,8 12,6 13,7 12,8 13 7 18 10 ZO 1007,7 31 29 0,0
25.04.2017 11:00:00 12,5 8,6 12,2 13,7 12,8 17 9 22 12 NW 1009,6 36 0 0,0
25.04.2017 10:00:00 11,9 7,4 10,3 13,8 12,7 6 4 19 10 Z 1009,7 9 0 0,2
25.04.2017 09:00:00 11,8 6,5 10,0 13,8 12,8 10 6 15 8 ZZO 1010,3 10 0 0,0
25.04.2017 08:00:00 11,0 6,9 9,1 13,9 12,8 7 4 17 9 ZZO 1010,3 9 0 0,0
25.04.2017 07:00:00 10,8 7,5 8,6 13,9 12,8 8 5 18 10 ZO 1009,7 9 0 0,0
25.04.2017 06:00:00 10,7 7,2 6,1 14,0 12,8 7 4 11 6 WZW 1010,8 7 0 0,0
25.04.2017 05:00:00 10,6 5,8 7,8 14,0 12,7 4 2 8 4 NW 1010,9 8 0 0,0
25.04.2017 04:00:00 11,0 5,7 5,4 14,0 12,7 4 2 8 4 ZZO 1010,8 8 0 0,0
25.04.2017 03:00:00 11,1 6,8 5,2 14,0 12,7 5 3 18 10 WZW 1011,4 8 0 0,0
25.04.2017 02:00:00 11,9 6,0 6,0 14,1 12,8 12 7 18 10 WNW 1012,1 8 0 0,0
25.04.2017 01:00:00 13,4 5,5 6,9 14,0 12,7 9 5 14 8 W 1012,1 8 0 0,0
25.04.2017 00:00:00 14,8 5,8 7,2 14,0 12,7 8 5 14 7 W 1011,9 9 0 0,0
24.04.2017 23:00:00 16,5 3,9 9,1 14,0 12,8 8 4 16 9 WNW 1011,8 9 0 0,0
24.04.2017 22:00:00 18,6 6,1 12,2 13,9 12,7 10 6 21 11 NW 1011,4 8 0 0,0
24.04.2017 21:00:00 21,3 6,8 12,6 13,8 12,7 4 2 10 6 N 1010,7 9 11 0,0
24.04.2017 20:00:00 23,7 5,6 18,5 13,7 12,7 8 5 18 10 N 1010,3 8 60 0,0
24.04.2017 19:00:00 24,6 6,8 23,3 13,6 12,7 9 5 22 12 N 1010,6 9 60 0,0
24.04.2017 18:00:00 25,1 7,2 27,3 13,5 12,8 8 4 16 9 NNW 1010,6 9 60 0,0
24.04.2017 17:00:00 25,1 6,8 34,4 13,3 12,7 9 5 17 9 N 1010,9 12 60 0,0
24.04.2017 16:00:00 24,8 6,5 36,0 13,2 12,7 6 4 17 9 NO 1011,7 17 60 0,0
24.04.2017 15:00:00 24,0 8,0 38,7 13,2 12,7 3 2 18 10 N 1012,3 13 60 0,0
24.04.2017 14:00:00 23,3 7,8 38,0 13,1 12,7 5 3 14 8 N 1013,0 11 60 0,0
24.04.2017 13:00:00 22,3 8,8 36,7 13,1 12,7 5 3 12 7 N 1014,1 5 60 0,0
24.04.2017 12:00:00 20,4 9,3 33,6 13,1 12,7 5 3 16 9 N 1014,6 7 60 0,0
24.04.2017 11:00:00 18,9 7,6 25,9 13,2 12,7 3 2 9 5 NNW 1015,0 10 60 0,0
24.04.2017 10:00:00 17,1 8,2 11,8 13,2 12,7 0 0 8 4 N 1015,1 8 60 0,0
24.04.2017 09:00:00 13,3 7,5 5,7 13,3 12,7 6 4 9 5 ZO 1015,7 7 60 0,0
24.04.2017 08:00:00 9,0 5,7 1,3 13,4 12,7 3 1 9 5 OZO 1016,0 7 35 0,0
24.04.2017 07:00:00 7,4 5,0 1,1 13,4 12,7 5 3 7 4 OZO 1016,0 8 0 0,0
24.04.2017 06:00:00 7,3 4,8 1,4 13,5 12,8 4 2 7 4 OZO 1016,0 9 0 0,0
24.04.2017 05:00:00 8,2 5,0 2,2 13,6 12,8 5 3 7 4 ZO 1016,2 5 0 0,0
24.04.2017 04:00:00 9,1 5,3 2,8 13,6 12,7 6 3 7 4 ZO 1016,4 5 0 0,0
24.04.2017 03:00:00 9,3 5,1 2,8 13,6 12,7 5 3 8 4 ZO 1016,8 5 0 0,0
24.04.2017 02:00:00 10,4 5,2 3,4 13,6 12,7 3 2 5 3 OZO 1017,1 6 0 0,0
24.04.2017 01:00:00 12,0 5,2 4,0 13,6 12,7 0 0 7 4 N 1017,1 6 0 0,0
24.04.2017 00:00:00 13,9 5,3 4,7 13,6 12,7 5 3 6 3 WZW 1017,1 6 0 0,0
23.04.2017 23:00:00 15,6 5,2 6,3 13,6 12,7 3 1 15 8 N 1017,0 6 0 0,0
23.04.2017 22:00:00 17,8 5,4 8,4 13,5 12,8 10 6 22 12 N 1016,4 6 0 0,0
23.04.2017 21:00:00 20,6 1,9 9,6 13,4 12,7 4 2 8 4 NW 1015,7 7 40 0,0
23.04.2017 20:00:00 23,2 3,7 16,5 13,3 12,7 6 4 14 8 N 1015,3 6 60 0,0
23.04.2017 19:00:00 24,1 2,3 22,2 13,2 12,7 7 4 20 11 N 1015,2 6 60 0,0
23.04.2017 18:00:00 24,3 2,4 27,7 13,0 12,7 9 5 21 11 NNW 1015,4 7 60 0,0
23.04.2017 17:00:00 24,4 3,6 33,8 12,9 12,7 14 7 23 13 N 1015,6 5 60 0,0
23.04.2017 16:00:00 24,3 4,1 35,9 12,8 12,7 11 6 24 13 NNO 1016,1 9 60 0,0
23.04.2017 15:00:00 23,9 4,3 37,6 12,7 12,7 9 5 29 15 NO 1016,7 6 60 0,0
23.04.2017 14:00:00 23,1 5,5 35,3 12,7 12,7 8 5 22 12 NNW 1017,2 6 60 0,0
23.04.2017 13:00:00 21,5 5,8 36,0 12,7 12,8 9 5 16 9 NNW 1018,0 6 60 0,0
23.04.2017 12:00:00 19,7 6,8 33,4 12,7 12,7 5 3 11 6 NNW 1018,6 6 60 0,0
23.04.2017 11:00:00 16,9 6,1 24,9 12,8 12,7 2 1 10 5 NW 1019,0 6 60 0,0
23.04.2017 10:00:00 15,2 6,2 11,0 12,8 12,7 4 2 6 4 N 1019,3 6 60 0,0
23.04.2017 09:00:00 12,7 6,1 4,2 12,9 12,7 2 1 7 4 OZO 1019,5 7 60 0,0
23.04.2017 08:00:00 8,2 3,8 0,6 13,0 12,8 6 4 8 4 ZO 1019,7 6 31 0,0
23.04.2017 07:00:00 6,9 3,1 -0,5 13,0 12,8 8 4 9 5 ZO 1019,4 6 0 0,0
23.04.2017 06:00:00 6,7 2,8 0,0 13,1 12,8 4 2 7 4 OZO 1019,4 7 0 0,0
23.04.2017 05:00:00 6,8 3,0 0,3 13,2 12,8 8 4 9 5 ZZO 1019,5 6 0 0,0
23.04.2017 04:00:00 7,6 3,1 0,7 13,2 12,8 0 0 9 5 N 1019,5 7 0 0,0
23.04.2017 03:00:00 8,8 3,0 1,4 13,3 12,8 5 3 7 4 ZO 1019,6 7 0 0,0
23.04.2017 02:00:00 9,9 3,0 1,9 13,3 12,8 4 2 7 4 OZO 1020,0 7 0 0,0
23.04.2017 01:00:00 11,1 2,6 2,8 13,3 12,8 4 2 5 3 O 1019,9 7 0 0,0
23.04.2017 00:00:00 13,2 3,0 3,5 13,2 12,8 5 3 8 4 ZZO 1019,8 7 0 0,0
22.04.2017 23:00:00 14,4 2,6 4,3 13,2 12,8 4 2 8 5 ZO 1019,6 7 0 0,0
22.04.2017 22:00:00 16,6 1,5 5,7 13,2 12,8 5 3 8 4 NO 1019,1 8 0 0,0
22.04.2017 21:00:00 19,8 0,7 8,3 13,0 12,8 6 3 12 6 NO 1018,5 8 38 0,0
22.04.2017 20:00:00 22,4 -1,0 15,1 12,9 12,8 10 5 18 10 NNO 1018,2 7 60 0,0
22.04.2017 19:00:00 23,5 0,5 21,5 12,8 12,8 10 5 19 10 NNO 1018,3 9 60 0,0
22.04.2017 18:00:00 24,0 1,6 27,5 12,7 12,8 11 6 19 10 NNO 1018,5 7 60 0,0
22.04.2017 17:00:00 24,2 1,7 34,5 12,6 12,8 12 6 29 15 NNO 1018,8 8 60 0,0
22.04.2017 16:00:00 24,1 2,8 37,0 12,4 12,8 10 5 20 11 NO 1019,5 7 60 0,0
22.04.2017 15:00:00 23,3 1,6 37,8 12,4 12,8 10 5 27 15 NO 1020,5 8 60 0,0
22.04.2017 14:00:00 23,0 3,0 38,1 12,4 12,8 11 6 24 13 NO 1021,1 6 60 0,0
22.04.2017 13:00:00 21,9 3,5 37,1 12,3 12,8 10 5 18 10 NNO 1021,8 7 60 0,0
22.04.2017 12:00:00 20,7 4,7 34,0 12,4 12,8 4 2 10 6 NNO 1022,6 7 60 0,0
22.04.2017 11:00:00 18,1 3,5 26,7 12,4 12,8 2 1 8 4 WZW 1023,1 8 60 0,0
22.04.2017 10:00:00 16,1 4,5 10,3 12,5 12,8 0 0 8 5 N 1023,5 8 60 0,0
22.04.2017 09:00:00 12,1 4,6 4,0 12,6 12,8 6 4 9 5 ZO 1023,8 10 60 0,0
22.04.2017 08:00:00 7,9 2,4 0,5 12,6 12,8 6 3 11 6 OZO 1024,2 7 37 0,0
22.04.2017 07:00:00 5,7 1,2 -0,4 12,7 12,8 4 2 9 5 OZO 1024,0 7 0 0,0
22.04.2017 06:00:00 5,9 1,2 -0,6 12,7 12,8 5 3 9 5 ZO 1024,0 7 0 0,0
22.04.2017 05:00:00 6,3 0,4 -0,6 12,8 12,8 6 3 8 4 ZO 1024,1 7 0 0,0
22.04.2017 04:00:00 6,6 0,3 0,0 12,9 12,8 4 2 8 4 OZO 1024,2 7 0 0,0
22.04.2017 03:00:00 8,5 0,0 0,2 12,9 12,8 6 3 9 5 ZZO 1024,5 8 0 0,0
22.04.2017 02:00:00 8,7 -0,1 0,5 12,9 12,8 0 0 5 3 N 1024,8 8 0 0,0

tt = temperatuur
td = dauwpunt
tt 5cm = temperatuur 5cm
tt -20cm = temperatuur -20cm
tt -100cm = temperatuur -100cm
ff = windsnelheid
fx = windstoten
dd = windrichting
ppp = luchtdruk
vv = zicht
sd = Zonneschijnduur
rr = neerslag

Weerstations in de omgeving